Location: Brienzwiler
(46.7508°N, 8.1014°E)
Time: 17:03:43
(UTC+00:00)

Cosmos 2322 Rocket - Pass Details

Date: 05 July 2020
Orbit: 832 x 851 km, 71.0° (Epoch: 11 August)

Event Time Altitude Azimuth Distance (km) Brightness Sun altitude
Rises 19:52:57 0° 206° (SSW) 3,364 5.2 -4.8°
Reaches altitude 10° 19:55:23 10° 207° (SSW) 2,434 4.5 -5.1°
Maximum altitude 20:00:58 85° 296° (WNW) 842 2.3 -5.8°
Drops below altitude 10° 20:06:37 10° 26° (NNE) 2,455 4.9 -6.5°
Sets 20:09:04 0° 27° (NNE) 3,395 5.6 -6.8°
